FENGYUN 1C DEB, 36224

Orbit data source: Space-Track

FENGYUN 1C DEB, 36224 is space debris in SSO originally from a launch on Mon, 10 May 1999 UTC launched from the Taiyaun Space Center, China (TSC). Fengyun 1C debris stems from the Chinese weather satellite Fengyun-1C, which was intentionally destroyed by a Chinese anti-satellite missile in 2007. This event dramatically increased the amount of space debris, with thousands of trackable fragments posing hazards to satellites and human spaceflight. The Fengyun 1C debris cloud has become a focal point in discussions about space sustainability and the need for international regulations to prevent the creation of new debris.

Loading next visibility...
Identifier
36224, 1999-025DUZ
Orbit
SSO
Country
Flag of CNCN / PRC
Related business
Manufacturer
Unknown
Mission
Spacecraft
Bus & Motor
Unknown
Mass
Unknown
Launch date (UTC)
1999-05-10 (26 years ago)
Launch vehicle
Unknown
Launch site
Taiyaun Space Center, China (TSC)
Object type
Payload
Rocket body
Debris
Shape & HBR
Unknown shape, 0.1 m
Radar Cross Section
Small (<0.1 m²)

Expand to show TLE details & history
Last TLE update: 2 days ago

TLE from 2 days ago
0 FENGYUN 1C DEB
1 36224U 99025DUZ 25285.85029015  .00000283  00000-0  16518-3 0  9991
2 36224  98.7896 334.3461 0115334 164.0106 196.4756 14.12719935635728
Epoch: 2025-10-12T20:24Z
TLE epoch observation values (Epoch: 2025-10-12T20:24:25.068Z)
Latitude
-0.00003°
Longitude
6.58015°
Altitude
933.017 km
Speed
7.344 km/s
True Right ascension
22h 17m 23s
True Declination
0° 00' 00"
Sunlit
Object was in full shadow at epoch
Visualization orbit readout
Latitude
Unknown
Longitude
Unknown
Altitude
Unknown
Speed
Unknown
Apparent Right ascension
Unknown
Apparent Declination
Unknown
Sunlit
N/A
Visualization observer readout
Local Sidereal Time
08:02:28
Azimuth
Unknown
Elevation
Unknown
Doppler factor
Unknown
Orbital elements
Apogee altitude
930.584 km
Perigee altitude
763.917 km
Semi-major axis
7,225.388 km
Eccentricity
0.01153
Inclination
98.7896°
RAAN
334.3461°
Arg. of periapsis
164.0106°
True anomaly
196.10589°
Mean anomaly
196.4756°
Eccentric anomaly
196.29024°
Mean motion
3.53388 °/min
Orbital period
101.87 mins
BSTAR
0.00016518
Loading maneuver chart data...
Computing Atmospheric mass density...

Documentation

Showing up to 5 results
|